Боровое

Казахстан     53°04′28″N   70°16′33″E
темп.,
°C
ветер,
м/с
пор.,
м/с
влажн.,
%
обл.,
%
осадки,
мм/ч
давл.,
гПа
погр.,
м
25 февраля, чт
чт2523:00−24ююз4109696 0.1 1011463
02:00−25ююз4109699 0.1 1011375
05:00−26юз3598100 0.1 1012115
08:00−29зсз22100100 0.0 101428
11:00−27з489789 0.1 1016322
14:00−21зсз71093100 0.1 1020979
17:00−23зсз81194100 0.3 1024857
20:00−27зсз51298100 0.1 1028446
26 февраля, пт
пт2623:00−30з46100100 0.1 1031140
02:00−32з35100100 0.0 103282
05:00−32зюз349998 0.0 103464
08:00−30зюз359895 0.0 1035156
11:00−25зюз469692 0.1 1036280
14:00−23юз469495 0.0 1036321
17:00−26юз469481 0.0 1036192
20:00−30ююз45960 0.0 103778
27 февраля, сб
сб2723:00−30ююз45981 0.0 103680
02:00−30ююз45982 0.0 103584
05:00−30ююз45983 0.0 103594
08:00−29ююз58973 0.0 1034132
11:00−23ююз59952 0.0 1032214
14:00−20ююз6119310 0.0 1030266
17:00−19ю6139327 0.0 1028291
20:00−15ю101792100 0.1 1022479
28 февраля, вс
вс2823:00−14ю101992100 0.5 1019532
02:00−12ю111991100 0.3 1015696
05:00−10ююз111890100 0.8 1011778
08:00−7ююз9188998 0.1 1008650
11:00−3ююз9159099 0.1 1006682
14:00−1юз71190100 0.1 1006876
17:000юз81388100 0.1 1005802
20:00−2юз81489100 0.0 1005537
1 марта, пн
пн123:00−2юз61291100 0.1 1005544
02:00−4юз51193100 0.0 1005382
05:00−4юз61294100 0.3 1006651
08:00−5юз71392100 0.1 1007618
11:00−5зюз71193100 0.4 1008711
14:00−5з6994100 0.8 1010690
17:00−9зсз5994100 1.5 1013561
20:00−15зсз359692 0.1 1017119